パンスターズ彗星

C/2023 R1 ( PanSTARRS )

English version
Home page
Updated on October 1, 2025

---------------------------------------------------------------------

・ プロフィール

発見日 2023年9月7日
発見光度 20.1等
発見者 Pan-STARRS 2 telescope (Haleakala)

・ 写真集

・ 軌道要素

Epoch 2025 May 5.0 TT = JDT 2460800.5
T 2026 Apr. 13.49351 TT                                 Pike
q   3.5697391            (2000.0)            P               Q
z  -0.0006066      Peri.  144.27498     +0.07156636     -0.88869266
 +/-0.0000006      Node    62.56098     -0.99186498     -0.01548664
e   1.0021654      Incl.  149.31682     -0.10527160     -0.45824176
From 2072 observations 2023 July 29-2025 Aug. 7, mean residual 0".5.

・ 星図

・ 光度変化

        m1 = 5.5 + 5 logΔ + 10.0 log r

---------------------------------------------------------------------

軌道要素はM.P.E.C. 2025-P113に掲載されたものです。
星図はステラナビゲータ Ver.11 (アストロアーツ) で作成したものです。
光度グラフはComet for Windowsで作成したものです。

---------------------------------------------------------------------

Copyright(C) Seiichi Yoshida (comet@aerith.net). All rights reserved.